Home > Weather > Shepparton > Past weeks

Flag for Australia Past Weather in Shepparton, Victoria, Australia — Yesterday and Last 2 Weeks

Now
51 °F

Overcast.


Feels Like: 47 °F
Forecast: 41 / 56 °F
Wind: 9 mph from Southwest

Location: Mangalore Airport

Current Time: May 26, 2016 at 6:44:57 PM

Latest Report: May 26, 2016 at 6:00 PM


Visibility: N/A

Pressure: 29.69 "Hg

Humidity: 79%

Dew Point: 44 °F

Location of SheppartonLocation

Past Weather in Shepparton — Graph

°F

Shepparton Temperature Yesterday

Maximum temperature yesterday: 58 °F (at 3:00 PM)
Minimum temperature yesterday: 39 °F (at 3:00 AM)
Average temperature yesterday: 48 °F

High & Low Weather Summary for the Past Weeks

 TemperatureHumidityPressure
High69 °F (May 22, 3:00 PM)100% (May 13, 6:00 AM)30.31 "Hg (May 13, 6:00 AM)
Low39 °F (May 25, 3:00 AM)46% (May 23, 3:00 PM)29.62 "Hg (May 26, 2:00 PM)
Average54 °F82%30.06 "Hg
* Reported May 11 5:00 PM — May 26 5:00 PM, Shepparton, Weather by CustomWeather, © 2016

Note: Actual official high and low records may vary slightly from our data, if they occured in-between our weather recording intervals... More about our weather records

Advertising

Shepparton Weather History for the Previous 24 Hours

Scroll right to see more
 ConditionsComfort  
Time TempWeatherWind HumidityBarometerVisibility
5:00 PM
Thu, May 26
51 °FCool.9 mph85%29.67 "HgN/A
3:00 PM53 °FOvercast.10 mph86%29.63 "HgN/A
2:00 PM51 °FCool.10 mph95%29.62 "HgN/A
12:00 PM53 °FPartly sunny.5 mph100%29.62 "HgN/A
11:00 AM52 °FCool.6 mph100%29.65 "HgN/A
9:00 AM49 °FPartly sunny.7 mph100%29.66 "Hg6 mi
8:00 AM49 °FCool.9 mph100%29.66 "HgN/A
6:00 AM48 °FLow clouds.9 mph100%29.67 "Hg2 mi
5:00 AM48 °FCool.13 mph100%29.69 "HgN/A
3:00 AM48 °FFog.14 mph100%29.74 "Hg3 mi
2:00 AM48 °FCool.10 mph100%29.76 "HgN/A
12:00 AM49 °FLow clouds.10 mph99%29.82 "Hg3 mi
11:00 PM
Wed, May 25
49 °FCool.9 mph99%29.83 "HgN/A
9:00 PM49 °FLow clouds.9 mph99%29.87 "Hg4 mi
8:00 PM51 °FCool.13 mph99%29.88 "HgN/A
6:00 PM54 °FOvercast.12 mph77%29.86 "HgN/A
Weather by CustomWeather, © 2016

See weather overviewHow to use our weather pages